987  
ASUS42 KTBW 292010  
RWRFL  
FLORIDA REGIONAL WEATHER ROUNDUP  
NATIONAL WEATHER SERVICE TAMPA BAY RUSKIN FL  
300 PM EST THU JAN 29 2015  
 
NOTE: "FAIR" INDICATES FEW OR NO CLOUDS BELOW 12,000 FEET WITH NO  
SIGNIFICANT WEATHER AND/OR S TO VISIBILITY
.  
 
 
FLZ001>010-012>015-112-114-115-292100-  
PANHANDLE FLORIDA  
 
CITY SKY/WX TMP DP RH WIND PRES REMARKS
 
PENSACOLA MOSUNNY 67 51 56 S13 30.23F  
PENSACOLA NAS MOSUNNY 68 53 58 SW7 30.24F  
MILTON NAS PTSUNNY 68 50 52 S15 30.23F  
CRESTVIEW PTSUNNY 67 51 56 S12 30.25F  
DUKE FIELD MOSUNNY 66 51 57 S8 30.23F  
VALPARAISO PTSUNNY 71 52 50 S8 30.25F  
MARY ESTHER PTSUNNY 65 49 56 S9 30.24F  
TRI COUNTY FAIR 65 47 52 SW8G17 30.24F  
PANAMA CITY FAIR 63 50 62 SE9 30.24F  
TYNDALL AFB SUNNY 62 48 60 S10 30.26F  
APALACHICOLA SUNNY 62 45 53 S8 30.26F  
 
STATION/POSITION SKY/WX TEMP WIND PRES WAVE SWELL
 
AIR SEA DIR/SP/G HT/PER HT/PER  
(F) (DEG/KT/KT) (MB) (FT/S) (FT/S)  
30.1N 87.6W 65 63 210/ 4/ 6 1023.3F 2/ 4 2/ 4  
29.2N 88.2W 67 70 210/ 8/ 10 1023.9F 2/ 5 2/ 5  
PANAMA CITY BEAC 58 59 140/ 14/ 16 1024.5F  
CAPE SAN BLAS NOT AVBL  
TOWER C 58 CALM / 1 1024.8S  
28.5N 84.5W 61 68 150/ 6/ 10 1024.2F 3/ 5 2/ 5  
 

 
FLZ011-016>038-118-127-128-134-139-239-292100-  
NORTH FLORIDA  
 
CITY SKY/WX TMP DP RH WIND PRES REMARKS
 
MARIANNA SUNNY 66 43 43 SW10 30.23F  
TALLAHASSEE MOSUNNY 64 29 26 SW8 30.24F  
PERRY SUNNY 65 43 44 SW10 30.25F  
CROSS CITY N/A 69 41 36 SW8 30.23F  
LAKE CITY FAIR 64 41 42 S3 30.23F  
GAINESVILLE MOSUNNY 66 39 37 S3 30.24F  
MAYPORT NAS PTSUNNY 59 48 67 NE9 30.25F  
JACKSONVILLE PTSUNNY 65 44 46 S10 30.23F  
JAX NAS PTSUNNY 67 43 41 S9 30.25F  
JAX CRAIG PTSUNNY 62 47 57 NE10 30.24F  
JAX CECIL SUNNY 66 46 48 CALM 30.24F  
FERNANDINA BEA FAIR 63 46 55 E7 30.23F  
ST AUGUSTINE MOSUNNY 60 50 69 NE9 30.25F  
 
STATION/POSITION SKY/WX TEMP WIND PRES WAVE SWELL
 
AIR SEA DIR/SP/G HT/PER HT/PER  
(F) (DEG/KT/KT) (MB) (FT/S) (FT/S)  
SHELL POINT NOT AVBL  
KEATON BEACH 56 240/ 5/ 5 1024.5F  
CEDAR KEY 59 150/ 2/ 2 1024.8F  
FERNANDINA 57 54 20/ 4/ 6 1024.6F  
MAYPORT 55 57 50/ 9/ 9 1025.1F  
31.4N 80.9W 53 54 30/ 4/ 4 1024.0F 3/11 3/11  
ST AUGUSTINE 56 20/ 9/ 10 1024.6F  
 

 
FLZ040-043>046-052-053-057-058-063-144-292100-  
INTERIOR CENTRAL FLORIDA  
 
CITY SKY/WX TMP DP RH WIND PRES REMARKS
 
OCALA SUNNY 66 43 42 S7 30.24F  
THE VILLAGES N/A 68 45 42 E8 30.13F  
LEESBURG SUNNY 68 47 46 CALM 30.23F  
SANFORD SUNNY 70 46 42 MISG 30.22F  
ORLANDO EXEC SUNNY 70 47 43 E8 30.21F  
ORLANDO INTL MOSUNNY 71 47 42 SE9 30.22F  
KISSIMMEE SUNNY 70 46 43 E7 30.22F  
WINTER HAVEN SUNNY 71 46 40 VRB7 30.23F  
LAKELAND SUNNY 70 43 37 SE5 30.22F  
BARTOW SUNNY 68 45 42 E8 30.23F  
OKEECHOBEE PTSUNNY 72 50 46 CALM 30.22S  
 

 
FLZ041-047-054-059-064-141-147-292100-  
EAST CENTRAL FLORIDA  
 
CITY SKY/WX TMP DP RH WIND PRES REMARKS
 
ORMOND BEACH SUNNY 64 48 55 E10 30.23F  
DAYTONA BEACH MOSUNNY 67 48 50 E8 30.23F  
DELAND CLEAR N/A N/A N/A S5 30.23F  
NEW SMYRNA BEA MOSUNNY 68 48 49 NE8 30.24F  
JFK SPACE CTR SUNNY 69 47 46 SE7 30.22F  
TITUSVILLE MOSUNNY 66 48 52 E7 30.23F  
CAPE CANAVERAL SUNNY 68 49 50 E8 30.23F  
PATRICK AFB SUNNY 67 52 58 NE7 30.23F  
MELBOURNE MOSUNNY 69 48 47 NE8 30.23F  
VERO BEACH MOSUNNY 71 48 43 E8 30.23F  
FT PIERCE SUNNY 71 50 47 E7 30.22F  
STUART PTSUNNY 68 48 49 E92 30.23S  
 
STATION/POSITION SKY/WX TEMP WIND PRES WAVE SWELL
 
AIR SEA DIR/SP/G HT/PER HT/PER  
(F) (DEG/KT/KT) (MB) (FT/S) (FT/S)  
28.5N 80.2W 64 69 50/ 6/ 8 1024.2F  
28.9N 78.5W 64 75 80/ 4/ 8 1024.2F 6/11 7/11  
TRIDENT PIER 68 62 30/ 7/ 10 1024.1F  
28.4N 80.5W 63 N/A 3/13 2/13  
 

 
FLZ050-056-061-142-242-148-248-149-249-151-251-155-255-  
160-260-292100-  
WEST CENTRAL FLORIDA  
 
CITY SKY/WX TMP DP RH WIND PRES REMARKS
 
CRYSTAL RIVER FAIR 68 37 32 SE3 30.23S  
INVERNESS FAIR 70 45 40 CALM 30.23F  
BROOKSVILLE SUNNY 69 43 38 CALM 30.23F  
ZEPHYRHILLS FAIR 72 39 30 S6 30.23F  
CLEARWATER SUNNY 69 40 34 NE8 30.22F  
TAMPA INTL MOSUNNY 68 47 46 W8 30.22F  
TAMPA EXEC SUNNY 72 41 33 SE6 30.22F  
PLANT CITY N/A N/A N/A N/A MISG N/A  
MACDILL AFB SUNNY 72 48 42 VRB3 30.22F  
PETER O KNIGHT SUNNY 72 46 40 W3 30.22F  
ST PETERSBURG SUNNY 68 49 50 E3 30.21F  
SARASOTA SUNNY 70 42 36 VRB5 30.20F  
VENICE FAIR 68 46 45 W10 30.23S  
 
STATION/POSITION SKY/WX TEMP WIND PRES WAVE SWELL
 
AIR SEA DIR/SP/G HT/PER HT/PER  
(F) (DEG/KT/KT) (MB) (FT/S) (FT/S)  
CEDAR KEY 59 150/ 2/ 2 1024.8F  
28.5N 84.5W 61 68 150/ 6/ 10 1024.2F 3/ 5 2/ 5  
CLEARWATER BEACH 60 60 330/ 8/ 9 1024.2F  
MIDDLE TAMPA BAY 62 20/ 7/ 8 1024.5F  
VENICE 69 63 350/ 1/ 3 1023.1F  
 

 
FLZ066-069-070-075>078-162-262-165-265-292100-  
SOUTHWEST FLORIDA AND KEYS  
 
CITY SKY/WX TMP DP RH WIND PRES REMARKS
 
PUNTA GORDA SUNNY 73 45 36 E9 30.22F  
FT MYERS SUNNY 72 45 37 VRB5 30.20S  
SOUTHWEST INTL SUNNY 72 46 39 E5 30.20F  
NAPLES SUNNY 75 47 36 SE9 30.19S  
MARCO ISLAND MOCLDY N/A N/A N/A E6 30.18F  
IMMOKALEE PTCLDY 75 48 38 E6 30.21S  
MARATHON SUNNY 70 56 61 NE15 30.17F  
KEY WEST NAS MOSUNNY 73 54 51 E18 30.17F  
KEY WEST INTL SUNNY 72 54 53 E17G23 30.17F  
 
STATION/POSITION SKY/WX TEMP WIND PRES WAVE SWELL
 
AIR SEA DIR/SP/G HT/PER HT/PER  
(F) (DEG/KT/KT) (MB) (FT/S) (FT/S)  
VENICE 69 63 350/ 1/ 3 1023.1F  
NAPLES 70 72 150/ 5/ 10 1023.0F  
26.0N 85.6W 67 72 100/ 10/ 12 1022.6F 3/ 5 2/ 5  
DRY TORTUGAS 67 80/ 18/ 21 1021.9F  
SAND KEY 69 70/ 21/ 24 1021.1F  
SOMBRERO KEY 67 30/ 18/ 19 1022.3F  
LONG KEY 66 65 60/ 15/ 16 1023.2F  
MOLASSES REEF 68 76 60/ 15/ 17 1022.3F  
 

 
FLZ067-068-071>074-168-172>174-292100-  
SOUTHEAST FLORIDA  
 
CITY SKY/WX TMP DP RH WIND PRES REMARKS
 
W PALM BEACH PTSUNNY 70 49 47 E13 30.21S  
FT LAUDER-EXEC CLOUDY 70 49 47 E9 30.20F  
FT LAUDERDALE MOSUNNY 70 50 49 E12 30.20S  
POMPANO BEACH PTSUNNY 73 50 44 E9G17 30.21S  
PEMBROKE PINES PTSUNNY 70 49 47 E13 30.22S  
OPA LOCKA MOSUNNY 71 49 45 E10 30.20F  
MIAMI MOSUNNY 71 47 42 NE10 30.20F  
WEST KENDALL MOSUNNY 72 50 45 E16 30.20S  
HOMESTEAD MOSUNNY 70 53 53 NE13 30.19S  
 
STATION/POSITION SKY/WX TEMP WIND PRES WAVE SWELL
 
AIR SEA DIR/SP/G HT/PER HT/PER  
(F) (DEG/KT/KT) (MB) (FT/S) (FT/S)  
PORT EVERGLADES 68 80/ 8/ 15 1022.8  
VIRGINIA KEY 67 66 70/ 10/ 13 1023.0F  
LAKE WORTH 67 74 60/ 8/ 13 1022.9F  
SETTLEMENT POINT 66 40/ 7/ 8 1023.9R  
 

 
 
CLICK HERE TO GO TO PREVIOUS BULLETINS.

The Nexlab FL Page Main Text Page